FW2211 Weather Reports


Display with metric or nautical units.
time (UTC)temp
F
wind
direction
speed
MPH
gust
MPH
rain 1hr
in
rain 24hr
in
rain mn
in
humidity
%
barometer
mb
20200406002016 81 225 10.0 14.0 0.00 0.00 0.00 19 1008.3
20200406001017 81 225 7.0 9.0 0.00 0.00 0.00 20 1008.4
20200406000017 81 225 10.0 13.0 0.00 0.00 0.00 20 1008.4
20200405235016 82 225 9.0 11.0 0.00 0.00 0.00 20 1008.3
20200405234016 82 202 6.0 8.0 0.00 0.00 0.00 21 1008.1
20200405233016 82 225 8.0 12.0 0.00 0.00 0.00 21 1008.0
20200405232016 82 202 7.0 10.0 0.00 0.00 0.00 23 1008.3
20200405231017 82 225 10.0 14.0 0.00 0.00 0.00 25 1008.2
20200405230017 82 202 6.0 8.0 0.00 0.00 0.00 27 1008.5
20200405225016 82 225 8.0 11.0 0.00 0.00 0.00 29 1008.5
20200405224016 82 202 5.0 6.0 0.00 0.00 0.00 29 1008.6
20200405223016 83 225 7.0 10.0 0.00 0.00 0.00 31 1008.6
20200405222016 84 225 6.0 9.0 0.00 0.00 0.00 29 1008.7
20200405221016 84 202 5.0 7.0 0.00 0.00 0.00 25 1008.6
20200405220016 84 157 5.0 8.0 0.00 0.00 0.00 22 1008.6
20200405215016 84 157 8.0 11.0 0.00 0.00 0.00 21 1008.9
20200405214016 84 225 7.0 10.0 0.00 0.00 0.00 21 1009.0
20200405213016 85 180 7.0 10.0 0.00 0.00 0.00 23 1009.1
20200405212016 84 202 7.0 11.0 0.00 0.00 0.00 24 1009.1
20200405211016 84 180 5.0 8.0 0.00 0.00 0.00 27 1009.3
20200405210018 84 202 7.0 11.0 0.00 0.00 0.00 27 1009.4
20200405205016 84 135 9.0 14.0 0.00 0.00 0.00 24 1009.5
20200405204016 84 225 5.0 8.0 0.00 0.00 0.00 26 1009.8
20200405203016 84 157 4.0 5.0 0.00 0.00 0.00 27 1009.8
20200405202016 83 225 4.0 6.0 0.00 0.00 0.00 28 1009.9
20200405201016 84 202 4.0 7.0 0.00 0.00 0.00 26 1009.8
20200405200016 83 180 6.0 9.0 0.00 0.00 0.00 28 1010.0
20200405195016 83 225 7.0 11.0 0.00 0.00 0.00 26 1010.1
20200405194016 83 135 9.0 13.0 0.00 0.00 0.00 25 1010.1
20200405193016 82 135 5.0 7.0 0.00 0.00 0.00 28 1010.4
20200405192016 82 180 5.0 8.0 0.00 0.00 0.00 27 1010.4
20200405191017 82 202 4.0 6.0 0.00 0.00 0.00 28 1010.7
20200405190016 82 157 7.0 10.0 0.00 0.00 0.00 28 1010.8
20200405185016 81 157 6.0 8.0 0.00 0.00 0.00 31 1010.6
20200405184016 81 157 6.0 10.0 0.00 0.00 0.00 30 1010.9
20200405183016 80 157 5.0 13.0 0.00 0.00 0.00 31 1011.1
20200405182016 80 202 6.0 10.0 0.00 0.00 0.00 31 1011.1
20200405181016 80 157 6.0 8.0 0.00 0.00 0.00 33 1011.2
20200405180016 79 180 4.0 6.0 0.00 0.00 0.00 35 1011.2
20200405175015 79 157 5.0 10.0 0.00 0.00 0.00 34 1011.2
20200405174015 78 112 2.0 4.0 0.00 0.00 0.00 34 1011.2
20200405173015 78 112 4.0 8.0 0.00 0.00 0.00 36 1011.1
20200405172016 77 135 5.0 7.0 0.00 0.00 0.00 36 1010.9
20200405171016 76 90 3.0 6.0 0.00 0.00 0.00 37 1010.9
20200405170016 76 90 3.0 6.0 0.00 0.00 0.00 37 1011.0
20200405165015 75 90 4.0 6.0 0.00 0.00 0.00 38 1011.0
20200405164015 74 135 5.0 7.0 0.00 0.00 0.00 38 1011.1
20200405163016 73 112 4.0 6.0 0.00 0.00 0.00 40 1011.2
20200405162015 73 112 7.0 8.0 0.00 0.00 0.00 40 1011.1
20200405161016 72 67 4.0 5.0 0.00 0.00 0.00 41 1011.0
20200405160015 71 112 5.0 7.0 0.00 0.00 0.00 41 1011.0
20200405155016 71 112 5.0 7.0 0.00 0.00 0.00 43 1010.9
20200405154027 70 112 4.0 7.0 0.00 0.00 0.00 43 1010.7
20200405153016 69 67 6.0 9.0 0.00 0.00 0.00 43 1010.7
20200405152015 68 67 5.0 8.0 0.00 0.00 0.00 44 1010.5
20200405151015 67 67 6.0 9.0 0.00 0.00 0.00 45 1010.5
20200405150015 66 67 4.0 6.0 0.00 0.00 0.00 46 1010.7
20200405145015 63 67 3.0 4.0 0.00 0.00 0.00 54 1010.6
20200405144016 59 0.0 0.0 0.00 0.00 0.00 66 1010.3
20200405143017 56 0.0 1.0 0.00 0.00 0.00 70 1010.2
20200405142015 54 0.0 0.0 0.00 0.00 0.00 75 1010.2
20200405141015 52 0.0 0.0 0.00 0.00 0.00 79 1010.1
20200405140015 51 0.0 0.0 0.00 0.00 0.00 79 1010.1
20200405135018 52 22 1.0 1.0 0.00 0.00 0.00 78 1009.9
20200405134017 52 0.0 1.0 0.00 0.00 0.00 76 1009.9
20200405133018 52 22 1.0 2.0 0.00 0.00 0.00 78 1009.8
20200405132015 52 0.0 1.0 0.00 0.00 0.00 77 1009.9
20200405131017 52 0.0 0.0 0.00 0.00 0.00 77 1009.9
20200405130015 52 0.0 1.0 0.00 0.00 0.00 77 1009.5
20200405125018 51 22 2.0 2.0 0.00 0.00 0.00 76 1009.5
20200405124017 51 0.0 0.0 0.00 0.00 0.00 77 1009.5
20200405123017 51 0.0 0.0 0.00 0.00 0.00 77 1009.4
20200405122017 51 0.0 1.0 0.00 0.00 0.00 77 1009.3
20200405121017 52 22 1.0 1.0 0.00 0.00 0.00 77 1009.2
20200405120017 52 0.0 1.0 0.00 0.00 0.00 77 1009.1
20200405115017 52 22 1.0 1.0 0.00 0.00 0.00 77 1009.1
20200405114018 53 0.0 1.0 0.00 0.00 0.00 76 1009.0
20200405113017 54 22 1.0 2.0 0.00 0.00 0.00 77 1009.0
20200405112021 54 22 2.0 2.0 0.00 0.00 0.00 74 1009.0
20200405111022 55 22 2.0 3.0 0.00 0.00 0.00 75 1008.9
20200405110017 56 22 2.0 2.0 0.00 0.00 0.00 73 1009.0
20200405105017 57 22 2.0 3.0 0.00 0.00 0.00 73 1008.9
20200405104017 57 22 1.0 2.0 0.00 0.00 0.00 72 1008.9
20200405103017 56 22 2.0 2.0 0.00 0.00 0.00 72 1009.0
20200405102017 56 45 2.0 3.0 0.00 0.00 0.00 71 1009.1
20200405101017 56 45 2.0 3.0 0.00 0.00 0.00 71 1009.3
20200405100016 56 45 1.0 2.0 0.00 0.00 0.00 71 1009.3
20200405095016 56 45 2.0 2.0 0.00 0.00 0.00 71 1009.4
20200405094016 56 45 2.0 2.0 0.00 0.00 0.00 71 1009.4
20200405093017 56 45 2.0 3.0 0.00 0.00 0.00 70 1009.4
20200405092017 57 45 1.0 2.0 0.00 0.00 0.00 69 1009.6
20200405091017 57 45 2.0 3.0 0.00 0.00 0.00 68 1009.6
20200405090021 57 22 2.0 2.0 0.00 0.00 0.00 68 1009.7
20200405085016 57 22 2.0 3.0 0.00 0.00 0.00 68 1009.7
20200405084016 57 22 3.0 4.0 0.00 0.00 0.00 67 1009.8
20200405083017 57 45 2.0 3.0 0.00 0.00 0.00 67 1009.8
20200405082016 57 45 1.0 2.0 0.00 0.00 0.00 66 1009.9
20200405081041 57 0 2.0 2.0 0.00 0.00 0.00 65 1010.2
20200405080017 58 0.0 1.0 0.00 0.00 0.00 63 1010.3
20200405075016 59 0 2.0 3.0 0.00 0.00 0.00 62 1010.4
20200405074042 60 0 2.0 3.0 0.00 0.00 0.00 60 1010.3
20200405073021 60 0 1.0 1.0 0.00 0.00 0.00 59 1010.4
20200405072021 60 0 1.0 2.0 0.00 0.00 0.00 60 1010.5
20200405071035 60 22 2.0 3.0 0.00 0.00 0.00 61 1010.5
20200405070016 60 22 3.0 4.0 0.00 0.00 0.00 60 1010.4
20200405065016 60 45 2.0 2.0 0.00 0.00 0.00 60 1010.6
20200405064015 60 0.0 0.0 0.00 0.00 0.00 59 1010.6
20200405063015 60 45 1.0 2.0 0.00 0.00 0.00 57 1010.6
20200405062015 61 45 1.0 1.0 0.00 0.00 0.00 57 1010.6
20200405061015 60 45 2.0 2.0 0.00 0.00 0.00 57 1010.7
20200405060015 61 45 1.0 2.0 0.00 0.00 0.00 56 1010.7
20200405055015 61 45 2.0 2.0 0.00 0.00 0.00 53 1010.7
20200405054018 61 45 1.0 2.0 0.00 0.00 0.00 52 1010.7
20200405053017 61 45 1.0 2.0 0.00 0.00 0.00 51 1010.8
20200405052017 61 45 1.0 1.0 0.00 0.00 0.00 53 1010.9
20200405050017 61 0.0 1.0 0.00 0.00 0.00 49 1010.9
20200405045017 62 45 2.0 3.0 0.00 0.00 0.00 48 1010.8
20200405044027 62 67 2.0 2.0 0.00 0.00 0.00 48 1010.7
20200405043017 63 67 2.0 2.0 0.00 0.00 0.00 48 1010.7
20200405042017 64 0.0 0.0 0.00 0.00 0.00 46 1010.6
20200405041017 64 67 1.0 1.0 0.00 0.00 0.00 45 1010.6
20200405040017 64 135 1.0 2.0 0.00 0.00 0.00 46 1010.6
20200405035018 64 0.0 0.0 0.00 0.00 0.00 44 1010.4
20200405034017 65 135 2.0 3.0 0.00 0.00 0.00 45 1010.1
20200405033022 65 0.0 0.0 0.00 0.00 0.00 43 1010.1
20200405032017 66 0.0 0.0 0.00 0.00 0.00 42 1010.2
20200405031017 66 225 2.0 3.0 0.00 0.00 0.00 41 1009.9
20200405030018 67 225 2.0 3.0 0.00 0.00 0.00 38 1009.9
20200405025017 68 202 3.0 4.0 0.00 0.00 0.00 37 1009.8
20200405024037 68 202 2.0 2.0 0.00 0.00 0.00 37 1009.5
20200405023022 69 225 1.0 2.0 0.00 0.00 0.00 36 1009.6
20200405022018 70 225 1.0 2.0 0.00 0.00 0.00 34 1009.3
20200405021017 71 225 2.0 2.0 0.00 0.00 0.00 33 1009.2
20200405020017 72 225 2.0 3.0 0.00 0.00 0.00 31 1009.2
20200405015017 74 225 2.0 3.0 0.00 0.00 0.00 29 1009.1
20200405014017 75 225 2.0 3.0 0.00 0.00 0.00 27 1009.0
20200405013016 76 225 3.0 4.0 0.00 0.00 0.00 25 1009.2
20200405012017 78 225 3.0 4.0 0.00 0.00 0.00 25 1009.1
20200405011017 78 202 3.0 5.0 0.00 0.00 0.00 23 1009.0
20200405010017 79 202 3.0 5.0 0.00 0.00 0.00 23 1009.0
20200405005018 80 180 7.0 10.0 0.00 0.00 0.00 23 1009.1
20200405004021 80 202 6.0 8.0 0.00 0.00 0.00 25 1009.0
20200405003017 80 180 8.0 9.0 0.00 0.00 0.00 24 1008.9